{"data":{"norad_id":59046,"intl_designator":"2024-038Z","name":"STARLINK-31205","alt_names":[],"object_type":"PAYLOAD","status":"ACTIVE","operator":null,"country":"US","launch_date":"2024-02-25","launch_site_code":"AFETR","launch_vehicle":null,"mission":null,"orbit_class":"UNKNOWN","rcs_meters":null,"size_class":null,"mass_kg":null,"dimensions":null,"purposes":["comms"],"wikipedia_slug":null,"has_3d_model":false,"image_url":null,"decayed_at":null,"tle_current":{"epoch":"2026-09-20T07:47:57.334560Z","epoch_age_seconds":171590,"freshness":"FRESH","line1":"1 59046U 24038Z   26263.32496915 -.00003181  00000+0 -10610-3 0  9994","line2":"2 59046  43.0040   4.5001 0001010 273.5187  86.5549 15.27592588144561","mean_motion":15.27592588,"eccentricity":0.000101,"inclination_deg":43.004,"raan_deg":4.5001,"arg_perigee_deg":273.5187,"mean_anomaly_deg":86.5549,"bstar":-0.0001061,"rev_number":14456,"period_min":94.265971916329,"perigee_km":482.31842730925,"apogee_km":483.70437928671,"semimajor_km":6861.148403298,"source":"CELESTRAK","updated_at":"2026-09-21T09:00:34.033143Z"}}}